• In Belarus
  • List of Countries
  • For 7 days
  • Water Temperature
  • Satellite Maps
  • Weather Map
  • Weather Widgets
  • user-avatar
    Login

    Hourly Weather Sumgayit

    Today, 22 June, Friday

    Time Temperature Precipitation Wind Pressure Humidity
    00:00 +26°C° 0 mm 2 mps 739 mmHg 42%
    01:00 +26°C° 0 mm 2 mps 738 mmHg 43%
    02:00 +25°C° 0 mm 2 mps 738 mmHg 44%
    03:00 +25°C° 0 mm 2 mps 738 mmHg 44%
    04:00 +26°C° 0 mm 2 mps 738 mmHg 43%
    05:00 +26°C° 0 mm 1 mps 738 mmHg 41%
    06:00 +27°C° 0 mm 1 mps 738 mmHg 40%
    07:00 +28°C° 0 mm 1 mps 738 mmHg 37%
    08:00 +29°C° 0 mm 1 mps 738 mmHg 34%
    09:00 +30°C° 0 mm 1 mps 738 mmHg 30%
    10:00 +31°C° 0 mm 2 mps 738 mmHg 29%
    11:00 +31°C° 0 mm 3 mps 738 mmHg 28%
    12:00 +33°C° 0 mm 3 mps 738 mmHg 26%
    13:00 +33°C° 0 mm 4 mps 737 mmHg 26%
    14:00 +33°C° 0 mm 4 mps 737 mmHg 26%
    15:00 +33°C° 0 mm 4 mps 736 mmHg 27%
    16:00 +33°C° 0 mm 4 mps 736 mmHg 28%
    17:00 +32°C° 0 mm 4 mps 736 mmHg 30%
    18:00 +30°C° 0 mm 4 mps 736 mmHg 31%
    19:00 +29°C° 0 mm 3 mps 736 mmHg 34%
    20:00 +29°C° 0 mm 2 mps 736 mmHg 37%
    21:00 +28°C° 0 mm 2 mps 736 mmHg 40%
    22:00 +27°C° 0 mm 1 mps 736 mmHg 42%
    23:00 +27°C° 0 mm 1 mps 736 mmHg 43%

    Tomorrow, 23 June, Saturday

    Time Temperature Precipitation Wind Pressure Humidity
    00:00 +24°C° 0 mm 0 mps 736 mmHg 45%
    01:00 +26°C° 0 mm 1 mps 736 mmHg 46%
    02:00 +25°C° 0 mm 1 mps 736 mmHg 47%
    03:00 +25°C° 0 mm 1 mps 736 mmHg 48%
    04:00 +26°C° 0 mm 1 mps 736 mmHg 45%
    05:00 +26°C° 0 mm 1 mps 736 mmHg 42%
    06:00 +26°C° 0 mm 2 mps 736 mmHg 40%
    07:00 +28°C° 0 mm 2 mps 736 mmHg 36%
    08:00 +29°C° 0 mm 2 mps 736 mmHg 33%
    09:00 +30°C° 0 mm 2 mps 736 mmHg 29%
    10:00 +30°C° 0 mm 2 mps 736 mmHg 27%
    11:00 +31°C° 0 mm 3 mps 736 mmHg 26%
    12:00 +33°C° 0 mm 3 mps 736 mmHg 24%
    13:00 +33°C° 0 mm 3 mps 736 mmHg 24%
    14:00 +34°C° 0 mm 4 mps 735 mmHg 25%
    15:00 +34°C° 0 mm 4 mps 735 mmHg 25%
    16:00 +33°C° 0 mm 4 mps 735 mmHg 27%
    17:00 +33°C° 0 mm 4 mps 735 mmHg 29%
    18:00 +32°C° 0 mm 4 mps 735 mmHg 31%
    19:00 +30°C° 0 mm 3 mps 735 mmHg 34%
    20:00 +29°C° 0 mm 2 mps 735 mmHg 36%
    21:00 +28°C° 0 mm 2 mps 736 mmHg 39%
    22:00 +28°C° 0 mm 1 mps 736 mmHg 41%
    23:00 +27°C° 0 mm 1 mps 735 mmHg 42%

    Day after tomorrow, 24 June, Sunday

    Time Temperature Precipitation Wind Pressure Humidity
    00:00 +27°C° 0 mm 1 mps 735 mmHg 44%
    01:00 +27°C° 0 mm 1 mps 735 mmHg 43%
    02:00 +26°C° 0 mm 1 mps 735 mmHg 43%
    03:00 +26°C° 0 mm 1 mps 735 mmHg 43%
    04:00 +27°C° 0 mm 1 mps 735 mmHg 41%
    05:00 +27°C° 0 mm 1 mps 736 mmHg 39%
    06:00 +28°C° 0 mm 1 mps 736 mmHg 37%
    07:00 +29°C° 0 mm 1 mps 736 mmHg 35%
    08:00 +30°C° 0 mm 2 mps 736 mmHg 33%
    09:00 +31°C° 0 mm 2 mps 736 mmHg 30%
    10:00 +32°C° 0 mm 2 mps 736 mmHg 29%
    11:00 +34°C° 0 mm 2 mps 736 mmHg 27%
    12:00 +35°C° 0 mm 2 mps 736 mmHg 25%
    13:00 +35°C° 0 mm 3 mps 736 mmHg 26%
    14:00 +35°C° 0 mm 4 mps 736 mmHg 26%
    15:00 +35°C° 0 mm 4 mps 736 mmHg 27%
    16:00 +35°C° 0 mm 4 mps 736 mmHg 28%
    17:00 +34°C° 0 mm 5 mps 736 mmHg 30%
    18:00 +33°C° 0 mm 5 mps 736 mmHg 32%
    19:00 +32°C° 0 mm 5 mps 736 mmHg 35%
    20:00 +30°C° 0 mm 5 mps 736 mmHg 37%
    21:00 +30°C° 0 mm 4 mps 737 mmHg 39%
    22:00 +29°C° 0 mm 4 mps 737 mmHg 39%
    23:00 +29°C° 0 mm 4 mps 737 mmHg 39%

    25 June, Monday

    Time Temperature Precipitation Wind Pressure Humidity
    00:00 +29°C° 0 mm 4 mps 737 mmHg 39%
    01:00 +28°C° 0 mm 5 mps 737 mmHg 39%
    02:00 +28°C° 0 mm 5 mps 737 mmHg 39%
    03:00 +28°C° 0 mm 5 mps 737 mmHg 38%
    04:00 +28°C° 0 mm 5 mps 737 mmHg 37%
    05:00 +29°C° 0 mm 5 mps 737 mmHg 37%
    06:00 +29°C° 0 mm 5 mps 737 mmHg 36%
    07:00 +30°C° 0 mm 5 mps 737 mmHg 34%
    08:00 +32°C° 0 mm 5 mps 738 mmHg 32%
    09:00 +33°C° 0 mm 4 mps 738 mmHg 29%
    10:00 +34°C° 0 mm 5 mps 738 mmHg 29%
    11:00 +35°C° 0 mm 5 mps 738 mmHg 28%
    12:00 +36°C° 0 mm 6 mps 738 mmHg 27%
    13:00 +36°C° 0 mm 6 mps 737 mmHg 27%
    14:00 +36°C° 0 mm 7 mps 737 mmHg 27%
    15:00 +37°C° 0 mm 8 mps 737 mmHg 27%
    16:00 +35°C° 0 mm 8 mps 737 mmHg 28%
    17:00 +35°C° 0 mm 8 mps 737 mmHg 29%
    18:00 +34°C° 0 mm 7 mps 737 mmHg 30%
    19:00 +33°C° 0 mm 7 mps 737 mmHg 31%
    20:00 +33°C° 0 mm 7 mps 738 mmHg 33%
    21:00 +32°C° 0 mm 6 mps 738 mmHg 35%
    22:00 +30°C° 0 mm 6 mps 738 mmHg 36%
    23:00 +30°C° 0 mm 5 mps 737 mmHg 37%

    26 June, Tuesday

    Time Temperature Precipitation Wind Pressure Humidity
    00:00 +29°C° 0 mm 5 mps 737 mmHg 38%
    01:00 +29°C° 0 mm 4 mps 737 mmHg 39%
    02:00 +28°C° 0 mm 4 mps 737 mmHg 40%
    03:00 +28°C° 0 mm 3 mps 737 mmHg 41%
    04:00 +28°C° 0 mm 3 mps 737 mmHg 41%
    05:00 +29°C° 0 mm 3 mps 737 mmHg 40%
    06:00 +29°C° 0 mm 2 mps 737 mmHg 39%
    07:00 +30°C° 0 mm 2 mps 737 mmHg 36%
    08:00 +31°C° 0 mm 2 mps 737 mmHg 33%
    09:00 +34°C° 0 mm 2 mps 737 mmHg 30%
    10:00 +35°C° 0 mm 2 mps 737 mmHg 28%
    11:00 +36°C° 0 mm 3 mps 736 mmHg 26%
    12:00 +37°C° 0 mm 3 mps 736 mmHg 24%
    13:00 +37°C° 0 mm 4 mps 736 mmHg 25%
    14:00 +37°C° 0 mm 4 mps 736 mmHg 26%
    15:00 +37°C° 0 mm 5 mps 735 mmHg 27%
    16:00 +36°C° 0 mm 4 mps 735 mmHg 29%
    17:00 +35°C° 0 mm 4 mps 735 mmHg 32%
    18:00 +34°C° 0 mm 4 mps 735 mmHg 34%
    19:00 +33°C° 0 mm 3 mps 736 mmHg 37%
    20:00 +31°C° 0 mm 2 mps 736 mmHg 40%
    21:00 +30°C° 0 mm 2 mps 736 mmHg 43%
    22:00 +30°C° 0 mm 1 mps 735 mmHg 45%
    23:00 +29°C° 0 mm 1 mps 735 mmHg 47%

    27 June, Wednesday

    Time Temperature Precipitation Wind Pressure Humidity
    00:00 +29°C° 0 mm 1 mps 735 mmHg 49%
    01:00 +29°C° 0 mm 1 mps 735 mmHg 48%
    02:00 +28°C° 0 mm 1 mps 735 mmHg 48%
    03:00 +28°C° 0 mm 1 mps 734 mmHg 48%
    04:00 +28°C° 0 mm 1 mps 735 mmHg 47%
    05:00 +29°C° 0 mm 1 mps 735 mmHg 47%
    06:00 +29°C° 0 mm 2 mps 735 mmHg 46%
    07:00 +30°C° 0 mm 2 mps 735 mmHg 44%
    08:00 +31°C° 0 mm 2 mps 735 mmHg 41%
    09:00 +32°C° 0 mm 2 mps 735 mmHg 39%
    10:00 +34°C° 0 mm 2 mps 735 mmHg 36%
    11:00 +36°C° 0 mm 3 mps 735 mmHg 32%
    12:00 +37°C° 0 mm 4 mps 734 mmHg 29%
    13:00 +37°C° 0 mm 4 mps 734 mmHg 29%
    14:00 +39°C° 0 mm 5 mps 734 mmHg 29%
    15:00 +39°C° 0 mm 5 mps 734 mmHg 28%
    16:00 +37°C° 0 mm 5 mps 734 mmHg 30%
    17:00 +36°C° 0 mm 4 mps 734 mmHg 31%
    18:00 +35°C° 0 mm 4 mps 734 mmHg 33%
    19:00 +34°C° 0 mm 3 mps 734 mmHg 35%
    20:00 +32°C° 0 mm 2 mps 734 mmHg 37%
    21:00 +31°C° 0 mm 1 mps 734 mmHg 40%
    22:00 +31°C° 0 mm 1 mps 734 mmHg 40%
    23:00 +31°C° 0 mm 1 mps 734 mmHg 40%
    Show more